TimeCST,TemperatureF,Dew PointF,Humidity,Sea Level PressureIn,VisibilityMPH,Wind Direction,Wind SpeedMPH,Gust SpeedMPH,PrecipitationIn,Events,Conditions,WindDirDegrees,DateUTC
12:53 AM,30.9,23.0,72,30.38,10.0,NNW,6.9,-,N/A,,Clear,330,2013-01-06 06:53:00
1:53 AM,30.9,24.1,76,30.39,10.0,NW,10.4,-,N/A,,Clear,310,2013-01-06 07:53:00
2:53 AM,30.9,24.1,76,30.39,10.0,NW,11.5,-,N/A,,Clear,320,2013-01-06 08:53:00
3:53 AM,28.9,21.9,75,30.40,10.0,NW,8.1,-,N/A,,Clear,320,2013-01-06 09:53:00
4:53 AM,27.0,21.9,81,30.41,10.0,NW,9.2,-,N/A,,Clear,320,2013-01-06 10:53:00
5:53 AM,28.9,21.9,75,30.41,10.0,NW,10.4,-,N/A,,Clear,310,2013-01-06 11:53:00
6:53 AM,25.0,21.0,85,30.43,10.0,NW,4.6,-,N/A,,Clear,310,2013-01-06 12:53:00
7:53 AM,26.1,21.0,81,30.45,10.0,WNW,3.5,-,N/A,,Clear,300,2013-01-06 13:53:00
8:53 AM,32.0,25.0,75,30.46,10.0,NW,3.5,-,N/A,,Clear,310,2013-01-06 14:53:00
10:53 AM,43.0,26.1,51,30.47,10.0,North,5.8,-,N/A,,Clear,350,2013-01-06 16:53:00
11:53 AM,46.0,26.1,46,30.44,10.0,NE,4.6,-,N/A,,Clear,50,2013-01-06 17:53:00
12:53 PM,46.9,24.1,41,30.41,10.0,Calm,Calm,-,N/A,,Clear,0,2013-01-06 18:53:00
1:53 PM,48.0,23.0,37,30.38,10.0,WSW,4.6,-,N/A,,Clear,240,2013-01-06 19:53:00
2:53 PM,50.0,21.9,33,30.35,10.0,Variable,4.6,-,N/A,,Clear,0,2013-01-06 20:53:00
3:53 PM,52.0,21.9,31,30.35,10.0,Calm,Calm,-,N/A,,Clear,0,2013-01-06 21:53:00
4:53 PM,48.9,23.0,36,30.35,10.0,SE,5.8,-,N/A,,Clear,140,2013-01-06 22:53:00
5:53 PM,39.9,23.0,51,30.35,10.0,SSE,6.9,-,N/A,,Clear,150,2013-01-06 23:53:00
6:53 PM,35.1,23.0,61,30.37,10.0,SSE,6.9,-,N/A,,Clear,160,2013-01-07 00:53:00
8:53 PM,30.9,21.9,69,30.35,10.0,South,10.4,-,N/A,,Clear,180,2013-01-07 02:53:00
9:53 PM,28.9,21.9,75,30.35,10.0,South,9.2,-,N/A,,Clear,170,2013-01-07 03:53:00
10:53 PM,30.0,21.9,72,30.33,10.0,South,11.5,-,N/A,,Clear,170,2013-01-07 04:53:00
11:53 PM,32.0,24.1,73,30.31,10.0,South,11.5,-,N/A,,Clear,180,2013-01-07 05:53:00